RH
21 21 22 23 28 32 38 46 57 69 71 66 59 34 30 35 38 39 35 31 30 23 18 13 15 69 79 78 52 83 92 93 91 77 59 69 93 95
21 21 22 23 27 33 39 44 51 60 71 67 63 57 45 37 35 40 43 35 30 24 21 21 55 88 87 92 92 91 89 88 92 92 93 94 94 96
21 23 24 26 28 32 36 43 50 55 60 58 57 56 53 52 45 40 40 36 29 23 26 82 87 87 88 89 86 86 90 91 90 91 90 92 93 93
22 26 28 31 36 39 43 46 50 52 61 64 61 59 61 61 63 56 43 37 44 51 62 90 84 86 88 85 83 87 86 90 91 90 90 91 92 92
25 30 32 36 40 42 45 50 51 54 58 63 62 60 61 59 54 56 61 53 52 77 88 78 87 92 86 82 83 87 89 91 90 89 88 88 87 88
30 39 43 44 46 48 51 54 55 58 62 66 68 66 64 62 61 63 58 62 78 69 56 77 83 71 42 25 58 81 81 77 88 86 87 88 89 88
48 54 54 55 66 87 89 83 84 86 88 90 90 84 77 69 64 67 83 97 86 65 59 54 55 43 25 18 15 20 28 76 91 88 86 84 86 88
92 87 81 80 88 100 99 96 96 98 94 89 83 85 83 90 100 99 100 98 98 56 55 39 36 39 38 46 50 43 55 86 91 88 86 89 94 88
99 100 99 100 99 99 99 99 98 99 99 98 99 99 98 99 96 95 82 83 66 48 58 64 65 60 62 68 68 69 90 88 85 83 81 83 88 92
96 99 100 95 92 95 94 89 85 80 75 73 72 70 70 70 68 66 64 62 67 66 76 98 79 87 81 74 61 81 86 87 86 86 84 80 82 84
100 100 100 98 98 98 94 92 90 89 86 91 93 96 97 95 98 98 97 97 96 96 96 91 87 84 78 66 56 53 90 89 84 82 80 79 78 80
96 94 96 97 98 96 96 98 100 95 87 86 82 75 76 66 73 80 80 84 92 93 74 83 85 93 99 75 86 87 74 66 74 76 78 78 77 75
100 99 97 95 94 92 90 96 93 85 92 94 92 88 82 82 81 74 72 80 91 88 71 99 99 93 98 94 71 71 76 57 50 39 31 63 80 82
98 97 96 98 96 94 92 97 93 90 96 98 99 93 79 71 81 81 95 99 94 91 94 91 96 93 89 84 80 72 80 71 85 82 81 82 88 89
99 99 99 96 95 96 98 97 99 98 97 98 98 90 86 81 76 82 88 89 89 82 59 39 36 44 78 100 100 100 94 89 82 89 88 95 94 87
97 96 94 99 100 94 90 85 93 96 98 96 94 91 99 99 98 94 85 68 63 54 48 48 61 93 100 100 100 100 96 100 81 96 100 92 85 92
60 52 46 40 40 45 54 63 67 69 72 72 71 96 99 98 90 74 62 60 59 53 54 80 89 91 81 94 100 98 96 98 81 78 99 100 95 94
98 89 78 74 74 71 73 78 86 99 99 100 100 100 98 91 73 52 41 43 77 88 93 92 98 94 99 88 98 100 98 96 87 97 100 100 94 89
97 92 98 94 85 78 77 98 100 100 99 98 98 91 69 52 44 41 42 55 81 93 93 98 100 100 100 100 68 85 92 94 98 100 98 100 100 94
93 95 96 95 90 79 80 97 99 100 96 85 72 60 50 48 46 46 47 70 83 91 100 100 99 93 100 100 100 95 99 100 100 100 100 96 98 100
97 92 88 79 83 89 94 100 98 87 75 66 57 52 50 51 47 46 46 76 94 99 100 100 91 97 100 100 100 98 87 85 100 100 100 100 100 99
81 89 95 100 100 100 97 91 81 71 68 64 59 57 50 46 44 44 44 47 48 59 67 58 53 59 86 100 100 100 100 85 79 98 100 100 100 100
96 100 94 91 94 91 87 90 89 76 66 67 59 50 45 43 42 46 69 96 100 100 100 100 96 100 100 100 100 100 100 100 100 100 100 87 100 100
Wind_Speed
17 18 20 20 20 21 22 23 24 26 26 24 25 25 24 24 24 26 27 29 27 26 24 23 22 21 20 21 21 20 21 21 22 22 23 24 24 24
20 21 22 22 23 23 24 25 25 28 33 30 31 32 29 27 26 24 25 27 28 27 26 24 21 21 21 20 20 21 22 23 23 24 24 24 25 25
23 24 25 24 25 24 24 25 26 28 35 36 33 31 30 28 28 28 27 27 26 25 26 22 22 22 22 21 22 24 24 23 25 25 25 25 25 24
26 27 27 25 25 24 25 26 26 27 29 33 32 31 29 27 27 29 30 26 23 24 24 22 25 23 21 23 25 25 25 25 25 25 26 25 24 24
28 29 28 26 26 26 25 26 27 27 29 31 33 32 32 31 31 27 24 26 27 23 23 26 21 22 24 25 27 26 25 25 26 26 25 26 27 27
27 28 27 26 26 25 25 26 25 24 24 26 28 30 29 28 28 29 31 27 25 28 31 28 29 31 34 33 28 27 26 28 26 27 27 27 27 28
25 26 26 25 24 22 23 24 25 28 29 31 33 33 34 32 32 30 29 27 31 34 34 36 37 38 35 32 31 31 30 29 29 28 29 30 31 31
27 28 27 26 25 26 27 28 29 32 33 34 36 38 36 34 32 32 26 26 33 39 41 37 30 32 32 31 31 32 32 32 31 30 31 32 33 33
31 31 30 25 23 25 26 26 29 30 30 30 32 29 27 25 29 28 32 33 41 36 31 37 34 36 35 34 32 34 33 31 33 34 34 34 33 33
33 33 34 34 33 29 28 30 30 29 30 32 36 37 38 38 37 36 35 36 38 38 39 39 42 40 33 37 42 38 34 34 33 32 33 35 36 37
33 33 33 33 30 25 27 30 32 34 31 30 32 33 34 34 34 36 38 34 34 25 26 31 33 37 40 42 43 41 33 32 34 35 36 37 39 40
32 31 28 28 27 26 29 33 35 36 35 35 36 35 34 35 34 34 37 38 38 36 37 31 34 34 36 37 31 29 36 40 40 41 40 40 41 42
31 30 30 27 27 28 29 33 36 33 34 34 36 37 37 36 34 32 32 34 37 38 37 32 36 37 31 31 43 43 42 50 49 50 51 45 40 38
35 34 33 29 29 30 31 31 32 32 34 36 35 35 36 39 38 40 33 29 31 34 33 32 37 37 41 44 46 45 42 44 42 45 46 45 41 40
36 36 32 30 30 31 32 29 29 32 34 32 31 32 33 34 32 28 28 30 32 35 38 43 45 45 40 41 41 39 40 42 43 45 45 45 45 45
34 34 33 31 30 32 32 32 29 29 30 33 31 29 26 22 23 25 29 32 37 42 44 42 39 35 37 39 40 41 42 44 45 44 43 46 48 47
22 24 26 27 26 24 24 25 27 28 29 27 29 27 23 22 24 29 32 36 38 41 41 36 35 39 41 40 42 43 44 46 47 48 45 47 50 50
28 30 29 28 30 31 32 29 23 21 24 23 24 24 25 30 36 39 42 42 37 38 39 39 38 40 39 44 39 43 45 47 48 47 46 47 53 53
32 32 34 36 36 35 36 32 29 28 23 21 23 26 30 35 38 41 41 39 39 38 39 39 37 35 38 44 52 36 40 44 45 46 46 48 52 54
29 26 27 28 27 26 22 21 23 25 25 27 30 33 36 36 37 39 40 39 40 41 40 40 41 45 44 48 51 51 44 47 51 53 53 56 56 52
21 27 28 26 23 22 20 22 24 25 28 31 34 34 35 35 39 40 41 38 37 40 42 44 48 46 47 50 51 55 58 52 49 53 55 53 52 51
28 27 23 18 18 20 22 25 28 30 31 31 33 34 35 37 40 41 41 43 45 46 48 50 51 52 53 48 53 55 57 60 59 52 53 54 57 55
15 15 17 17 19 21 23 24 27 30 31 32 33 35 37 39 39 41 43 44 47 48 50 52 54 52 51 52 53 55 55 56 58 56 59 60 54 57
Wind_Direction
286 283 281 278 273 273 272 273 277 285 288 290 293 297 292 287 281 278 281 285 292 294 292 292 293 294 299 301 303 307 309 311 311 307 300 298 302 298
282 278 274 272 270 268 268 267 266 270 277 281 284 289 292 290 289 288 284 287 287 288 290 290 289 291 296 298 301 302 304 305 306 305 304 301 298 295
277 274 270 270 268 268 267 267 266 266 270 277 280 285 287 288 287 286 286 287 286 284 285 286 289 287 292 291 294 298 301 301 301 302 300 299 297 297
274 271 271 270 270 270 270 269 270 271 274 280 284 287 288 289 288 289 291 287 284 283 284 282 289 284 284 282 294 297 297 296 296 297 296 296 292 292
269 267 267 268 269 270 270 270 270 271 272 276 280 283 284 287 290 289 287 285 284 280 283 286 279 274 284 288 291 291 292 291 293 294 295 291 291 291
266 266 267 267 268 269 269 270 275 277 279 280 283 288 291 293 291 288 286 283 277 282 288 275 271 274 283 288 284 286 286 291 291 291 292 291 289 288
267 267 268 269 269 269 276 282 280 278 278 278 281 286 286 288 287 290 283 272 282 290 289 279 279 283 283 281 281 284 290 290 290 288 286 286 285 284
278 280 278 274 264 261 261 261 266 275 276 276 278 278 283 282 280 275 272 277 284 290 293 291 287 285 288 288 289 289 289 288 288 285 285 283 282 283
270 272 273 268 268 267 263 264 260 258 261 269 276 276 277 270 280 284 287 285 287 291 287 285 287 286 286 289 288 288 288 283 284 284 283 282 281 283
263 265 267 273 276 277 279 279 277 276 271 266 266 270 272 276 277 279 281 282 281 282 281 271 286 282 286 287 288 287 282 282 279 279 281 282 282 282
258 260 264 268 272 269 269 269 271 272 272 268 266 270 272 274 274 279 276 276 278 281 277 286 284 284 287 288 289 286 280 277 278 280 281 281 281 281
261 263 261 263 268 268 268 269 271 276 280 279 278 275 272 271 270 265 268 274 278 282 280 281 281 281 282 281 275 275 286 286 284 283 283 282 280 281
261 262 262 263 263 264 264 266 269 277 277 274 275 277 279 280 280 275 269 272 276 278 281 283 280 279 269 281 285 287 287 288 289 291 289 285 280 277
262 265 267 267 267 268 267 267 269 272 271 274 274 274 276 277 271 276 273 272 275 275 278 277 280 283 284 285 283 286 284 286 284 284 284 285 281 276
258 263 267 268 269 268 265 263 269 272 277 279 277 277 279 283 289 282 278 276 275 276 281 285 284 282 277 272 276 279 284 282 282 280 280 279 279 281
247 248 250 255 262 267 268 263 262 261 266 271 275 280 278 277 273 275 278 285 290 292 291 286 282 275 272 273 276 279 281 279 285 281 279 280 280 276
263 258 258 259 262 263 265 267 269 271 271 268 267 274 273 269 272 284 288 289 286 287 288 283 277 276 280 278 276 278 279 280 285 285 279 276 277 275
259 260 264 268 267 270 273 278 275 275 278 265 259 258 265 279 289 292 291 290 282 278 277 278 279 282 281 281 272 274 276 277 282 281 277 273 275 275
252 253 255 261 262 260 268 269 267 263 253 247 262 275 283 286 289 290 290 288 281 277 276 275 274 273 275 274 285 276 273 275 276 276 273 269 269 272
272 272 271 273 276 277 271 263 262 263 271 280 284 286 288 290 290 290 290 286 282 281 276 274 272 274 267 271 281 285 280 275 273 272 273 273 271 275
254 258 266 271 274 274 264 255 259 267 275 280 282 285 287 289 290 290 290 284 281 277 274 272 273 278 277 278 276 277 281 282 271 270 272 272 273 274
270 267 261 256 253 259 263 271 277 280 280 279 280 283 287 289 290 291 290 291 290 288 285 288 290 289 283 274 274 276 279 286 286 276 271 266 265 266
273 275 260 258 260 266 270 273 276 278 278 280 284 288 291 292 292 292 291 292 292 291 289 288 290 287 279 276 275 276 275 275 276 274 273 278 271 268